TimePST,TemperatureF,Dew PointF,Humidity,Sea Level PressureIn,VisibilityMPH,Wind Direction,Wind SpeedMPH,Gust SpeedMPH,PrecipitationIn,Events,Conditions,WindDirDegrees,DateUTC
12:56 AM,28.0,21.9,78,30.19,10.0,Calm,Calm,-,N/A,,Clear,0,2013-02-06 08:56:00
1:56 AM,27.0,21.0,78,30.21,9.0,ENE,3.5,-,N/A,,Clear,70,2013-02-06 09:56:00
2:56 AM,25.0,19.9,81,30.21,10.0,Calm,Calm,-,N/A,,Clear,0,2013-02-06 10:56:00
3:56 AM,24.1,19.0,81,30.21,9.0,NE,3.5,-,N/A,,Clear,50,2013-02-06 11:56:00
4:56 AM,24.1,19.0,81,30.22,9.0,Calm,Calm,-,N/A,,Clear,0,2013-02-06 12:56:00
5:56 AM,23.0,18.0,81,30.22,9.0,Calm,Calm,-,N/A,,Clear,0,2013-02-06 13:56:00
6:56 AM,21.9,18.0,85,30.24,5.0,Calm,Calm,-,N/A,,Clear,0,2013-02-06 14:56:00
7:56 AM,24.1,18.0,77,30.24,9.0,Calm,Calm,-,N/A,,Clear,0,2013-02-06 15:56:00
8:56 AM,30.0,21.0,69,30.24,7.0,Calm,Calm,-,N/A,,Clear,0,2013-02-06 16:56:00
9:56 AM,37.9,23.0,55,30.21,10.0,Calm,Calm,-,N/A,,Clear,0,2013-02-06 17:56:00
10:56 AM,42.1,25.0,51,30.20,10.0,Calm,Calm,-,N/A,,Clear,0,2013-02-06 18:56:00
11:56 AM,46.9,24.1,41,30.17,10.0,Calm,Calm,-,N/A,,Clear,0,2013-02-06 19:56:00
12:56 PM,48.0,17.1,29,30.15,10.0,Variable,3.5,-,N/A,,Clear,0,2013-02-06 20:56:00
1:56 PM,48.9,23.0,36,30.12,10.0,Variable,3.5,-,N/A,,Clear,0,2013-02-06 21:56:00
2:56 PM,48.9,23.0,36,30.11,10.0,Calm,Calm,-,N/A,,Clear,0,2013-02-06 22:56:00
3:56 PM,46.9,21.0,36,30.10,10.0,Calm,Calm,-,N/A,,Clear,0,2013-02-06 23:56:00
4:56 PM,44.1,23.0,43,30.10,10.0,Calm,Calm,-,N/A,,Clear,0,2013-02-07 00:56:00
5:56 PM,42.1,23.0,47,30.10,9.0,Variable,3.5,-,N/A,,Clear,0,2013-02-07 01:56:00
6:56 PM,39.9,23.0,51,30.12,10.0,SE,3.5,-,N/A,,Clear,130,2013-02-07 02:56:00
7:56 PM,39.0,21.9,50,30.11,10.0,SE,5.8,-,N/A,,Clear,130,2013-02-07 03:56:00
8:56 PM,39.0,25.0,57,30.11,10.0,SE,3.5,-,N/A,,Clear,130,2013-02-07 04:56:00
9:56 PM,37.9,26.1,62,30.09,10.0,Variable,3.5,-,N/A,,Clear,0,2013-02-07 05:56:00
10:56 PM,37.9,28.0,68,30.08,10.0,Variable,3.5,-,N/A,,Partly Cloudy,0,2013-02-07 06:56:00
11:56 PM,37.9,28.0,68,30.05,10.0,East,6.9,-,N/A,,Overcast,100,2013-02-07 07:56:00